Regional Weather Roundup
Issued by NWS

Home | Current Version | Previous Version | Text Only | Print | Product List | Glossary On
Versions: 1 2 3 4 5 6 7 8 9 10 11 12 13 14 15 16 17 18 19 20 21 22 23 24 25 26 27 28 29 30 31 32 33 34 35 36 37 38 39 40 41 42 43 44 45 46 47 48 49 50
000
ASUS43 KOAX 271910
RWRNE

WEATHER ROUNDUP FOR NEBRASKA
NATIONAL WEATHER SERVICE OMAHA NE
100 PM CST THU NOV 27 2014

NOTES: SATELLITE DATA IS BEING USED TO AUGMENT CLOUD COVER ABOVE
       12000 FEET.
       "FAIR" INDICATES FEW OR NO CLOUDS BELOW 12,000 FEET WITH NO
       SIGNIFICANT WEATHER AND/OR OBSTRUCTIONS TO VISIBILITY.

  * THESE STATIONS DO NOT REPORT WEATHER SUCH AS RAIN...SNOW OR FOG.

NEZ001>004-019>022-054>056-272000-
NEBRASKA PANHANDLE

CITY           SKY/WX    TMP DP  RH WIND       PRES   REMARKS
SCOTTSBLUFF    MOSUNNY   33  26  75 CALM      30.06F
ALLIANCE       MOSUNNY   52  31  44 W14       30.03F
CHADRON        SUNNY    N/A N/A N/A CALM      30.00F
KIMBALL        PTSUNNY   48  29  48 W14       30.08F
SIDNEY         PTSUNNY   46  33  60 SW10      30.10F
$$

NEZ057>060-069>072-079>082-272000-
SOUTHWEST NEBRASKA

CITY           SKY/WX    TMP DP  RH WIND       PRES   REMARKS
NORTH PLATTE   SUNNY     42  22  44 S10       30.14F
IMPERIAL       MOSUNNY   50  31  48 S10       30.12F
LEXINGTON      SUNNY     40  22  47 S15       30.20F WCI  32
MCCOOK         SUNNY     49  23  36 S8        30.17F
OGALLALA       PTSUNNY   45  37  73 SW5       30.11F
$$

NEZ005>010-023>029-035>040-094-272000-
NORTH CENTRAL NEBRASKA

CITY           SKY/WX    TMP DP  RH WIND       PRES   REMARKS
VALENTINE      CLOUDY    36  21  54 S14       30.09F WCI  27
AINSWORTH      PTSUNNY   34  20  56 S15       30.12F WCI  25
BROKEN BOW     MOSUNNY   39  21  48 S20G26    30.18F WCI  29
O`NEILL        CLOUDY    26  15  62 SE18      30.23F WCI  13
ORD            CLOUDY    32  15  49 S16       30.23F WCI  21
THEDFORD       MOSUNNY   38  23  54 S13G18    30.10F WCI  31
$$

NEZ041-046>049-061>064-073>077-083>087-272000-
SOUTH CENTRAL NEBRASKA

CITY           SKY/WX    TMP DP  RH WIND       PRES   REMARKS
GRAND ISLAND   MOSUNNY   33  14  45 SE15      30.29F WCI  23
AURORA         SUNNY     33  14  46 SE16      30.31F WCI  22
HASTINGS       SUNNY     35  16  45 S14       30.27F WCI  26
HEBRON         SUNNY     36  11  36 SE12G17   30.35F WCI  27
HOLDREGE       SUNNY     37  19  48 S20G28    30.22F WCI  27
KEARNEY *      SUNNY     37  18  44 S20       30.26F WCI  27
YORK           SUNNY     32  14  47 SE15      30.34F WCI  22
$$

NEZ011>018-030>034-042>045-272000-
NORTHEAST NEBRASKA

CITY           SKY/WX    TMP DP  RH WIND       PRES   REMARKS
NORFOLK        PTSUNNY   22  13  68 SE15      30.33F WCI   9
ALBION         PTSUNNY   27  13  55 SE14      30.29F WCI  16
BLAIR          CLOUDY    21   7  54 SE6       30.41F WCI  13
COLUMBUS *     MOSUNNY   27  12  54 SE13      30.36F WCI  16
FREMONT        FAIR      23  11  60 SE8       30.41F WCI  14
TEKAMAH        CLOUDY    18   1  47 SE8       30.45F WCI   8
WAYNE          CLOUDY    17   7  66 SE12      30.38F WCI   4
$$

NEZ050>053-065>068-078-088>093-272000-
SOUTHEAST NEBRASKA

CITY           SKY/WX    TMP DP  RH WIND       PRES   REMARKS
LINCOLN        SUNNY     29  13  51 S10       30.42F WCI  20
OMAHA EPPLEY   PTSUNNY   19   3  49 SE7       30.47F WCI  10
BEATRICE       SUNNY     31  17  55 SE9       30.40F WCI  23
FALLS CITY     SUNNY     29  10  45 E6        30.46F WCI  23
NEBRASKA CITY  MOSUNNY   25   9  49 E6        30.45F WCI  18
PLATTSMOUTH    CLOUDY    21   8  56 E5        30.45F WCI  15
$$

NEZ044-045-051>053-067-272000-
OMAHA AREA

CITY           SKY/WX    TMP DP  RH WIND       PRES   REMARKS
OMAHA EPPLEY   PTSUNNY   19   3  49 SE7       30.47F WCI  10
BLAIR          CLOUDY    21   7  54 SE6       30.41F WCI  13
FREMONT        FAIR      23  11  60 SE8       30.41F WCI  14
MILLARD        CLOUDY    22  11  62 SE6       30.45F WCI  15
OFFUTT AFB     CLOUDY    20   3  47 SE6       30.45F WCI  13
PLATTSMOUTH    CLOUDY    21   8  56 E5        30.45F WCI  15
WAHOO          FAIR      26  15  62 SE9G17    30.41F WCI  17
$$


USA.gov is the U.S. government's official web portal to all federal, state and local government web resources and services.